YMA7555 MMVA-MHLM

Flight info

Callsign YMA7555
Flight time 0h 51m
Altitude 32000
Route OLORI PESGA
Aircraft B738/M-VGDW/C

Departure

Time 2026-04-21 09:29
Airport Carlos Rovirosa Pérez International Airport (MMVA)

Arrival

Time 2026-04-21 10:20
Airport Ramón Villeda Morales International Airport (MHLM)
Time Latitude Longitude Altitude Speed Heading
2026-04-21 09:20 17.99362 -92.81808 40 ft 0 kts 176°
2026-04-21 09:26 17.99388 -92.81808 38 ft 5 kts 204°
2026-04-21 09:26 17.99408 -92.81799 39 ft 2 kts 237°
2026-04-21 09:26 17.99413 -92.81884 40 ft 32 kts 270°
2026-04-21 09:26 17.99511 -92.82057 38 ft 16 kts 304°
2026-04-21 09:27 17.99585 -92.82196 39 ft 27 kts 296°
2026-04-21 09:27 17.99650 -92.82386 40 ft 20 kts 270°
2026-04-21 09:27 17.99638 -92.82590 38 ft 33 kts 264°
2026-04-21 09:27 17.99580 -92.82717 37 ft 15 kts 276°
2026-04-21 09:28 17.99634 -92.82713 38 ft 9 kts 85°
2026-04-21 09:28 17.99651 -92.82455 38 ft 73 kts 86°
2026-04-21 09:28 17.99692 -92.81648 42 ft 145 kts 86°
2026-04-21 09:28 17.99779 -92.80409 302 ft 184 kts 85°
2026-04-21 09:29 17.99766 -92.78978 785 ft 215 kts 104°
2026-04-21 09:29 17.99000 -92.77549 1120 ft 230 kts 123°
2026-04-21 09:29 17.98132 -92.76122 1661 ft 235 kts 117°
2026-04-21 09:29 17.97300 -92.74610 2175 ft 244 kts 116°
2026-04-21 09:30 17.96460 -92.73016 2686 ft 254 kts 115°
2026-04-21 09:30 17.95616 -92.71346 3180 ft 263 kts 115°
2026-04-21 09:30 17.94791 -92.69628 3658 ft 263 kts 114°
2026-04-21 09:30 17.93971 -92.67895 4110 ft 267 kts 114°
2026-04-21 09:31 17.93173 -92.66143 4586 ft 265 kts 113°
2026-04-21 09:31 17.92401 -92.64375 5105 ft 267 kts 113°
2026-04-21 09:31 17.91638 -92.62595 5606 ft 267 kts 113°
2026-04-21 09:31 17.90882 -92.60810 6128 ft 268 kts 113°
2026-04-21 09:32 17.90130 -92.59020 6636 ft 268 kts 113°
2026-04-21 09:32 17.89389 -92.57241 7127 ft 271 kts 113°
2026-04-21 09:32 17.88636 -92.55415 7623 ft 274 kts 113°
2026-04-21 09:32 17.87882 -92.53574 8128 ft 276 kts 113°
2026-04-21 09:33 17.87096 -92.51720 8641 ft 279 kts 114°
2026-04-21 09:33 17.86292 -92.49847 9180 ft 283 kts 114°
2026-04-21 09:33 17.85483 -92.47955 9687 ft 284 kts 114°
2026-04-21 09:33 17.84681 -92.46051 10200 ft 287 kts 113°
2026-04-21 09:34 17.83889 -92.44099 10677 ft 295 kts 112°
2026-04-21 09:34 17.83067 -92.42074 11154 ft 309 kts 113°
2026-04-21 09:34 17.82206 -92.39956 11609 ft 321 kts 113°
2026-04-21 09:34 17.81310 -92.37758 12076 ft 334 kts 113°
2026-04-21 09:35 17.80380 -92.35479 12548 ft 346 kts 113°
2026-04-21 09:35 17.79416 -92.33110 13000 ft 359 kts 113°
2026-04-21 09:35 17.78430 -92.30688 13443 ft 363 kts 112°
2026-04-21 09:35 17.77437 -92.28250 13897 ft 364 kts 112°
2026-04-21 09:36 17.76435 -92.25803 14282 ft 367 kts 112°
2026-04-21 09:36 17.75421 -92.23333 14667 ft 370 kts 112°
2026-04-21 09:36 17.74397 -92.20847 15060 ft 372 kts 112°
2026-04-21 09:36 17.73360 -92.18351 15457 ft 374 kts 112°
2026-04-21 09:37 17.72310 -92.15842 15846 ft 377 kts 112°
2026-04-21 09:37 17.71247 -92.13320 16209 ft 380 kts 112°
2026-04-21 09:37 17.70171 -92.10781 16572 ft 382 kts 112°
2026-04-21 09:37 17.69114 -92.08224 16929 ft 383 kts 111°
2026-04-21 09:38 17.68066 -92.05646 17286 ft 385 kts 111°
2026-04-21 09:38 17.67006 -92.03057 17644 ft 387 kts 111°
2026-04-21 09:38 17.65937 -92.00457 17981 ft 390 kts 111°
2026-04-21 09:38 17.64871 -91.97878 18322 ft 392 kts 111°
2026-04-21 09:39 17.63784 -91.95258 18642 ft 393 kts 112°
2026-04-21 09:39 17.62681 -91.92586 18984 ft 396 kts 112°
2026-04-21 09:39 17.61609 -91.89960 19312 ft 399 kts 111°
2026-04-21 09:39 17.60519 -91.87269 19647 ft 402 kts 111°
2026-04-21 09:40 17.59417 -91.84565 19978 ft 405 kts 112°
2026-04-21 09:40 17.58286 -91.81854 20304 ft 407 kts 112°
2026-04-21 09:40 17.57151 -91.79124 20634 ft 409 kts 112°
2026-04-21 09:40 17.56017 -91.76378 20967 ft 412 kts 112°
2026-04-21 09:41 17.54881 -91.73605 21302 ft 416 kts 112°
2026-04-21 09:41 17.53740 -91.70805 21621 ft 420 kts 112°
2026-04-21 09:41 17.52578 -91.67988 21950 ft 422 kts 113°
2026-04-21 09:41 17.51393 -91.65173 22269 ft 424 kts 114°
2026-04-21 09:42 17.50207 -91.62339 22590 ft 426 kts 114°
2026-04-21 09:42 17.49021 -91.59482 22910 ft 429 kts 113°
2026-04-21 09:42 17.47834 -91.56608 23222 ft 431 kts 114°
2026-04-21 09:42 17.46637 -91.53700 23523 ft 438 kts 114°
2026-04-21 09:43 17.45429 -91.50749 23823 ft 444 kts 114°
2026-04-21 09:43 17.44174 -91.47772 24105 ft 450 kts 114°
2026-04-21 09:43 17.42896 -91.44766 24395 ft 454 kts 114°
2026-04-21 09:43 17.41609 -91.41735 24680 ft 457 kts 114°
2026-04-21 09:44 17.40319 -91.38684 24976 ft 460 kts 114°
2026-04-21 09:44 17.39026 -91.35605 25273 ft 463 kts 114°
2026-04-21 09:44 17.37727 -91.32507 25576 ft 466 kts 114°
2026-04-21 09:44 17.36424 -91.29395 25862 ft 468 kts 114°
2026-04-21 09:45 17.35119 -91.26260 26141 ft 471 kts 114°
2026-04-21 09:45 17.33812 -91.23107 26424 ft 473 kts 114°
2026-04-21 09:45 17.32503 -91.19944 26715 ft 475 kts 114°
2026-04-21 09:45 17.31189 -91.16765 27001 ft 477 kts 114°
2026-04-21 09:46 17.29875 -91.13576 27294 ft 478 kts 114°
2026-04-21 09:46 17.28563 -91.10375 27587 ft 479 kts 115°
2026-04-21 09:46 17.27224 -91.07181 27886 ft 480 kts 115°
2026-04-21 09:46 17.25867 -91.03994 28186 ft 480 kts 115°
2026-04-21 09:47 17.24506 -91.00797 28490 ft 481 kts 115°
2026-04-21 09:47 17.23153 -90.97597 28798 ft 481 kts 115°
2026-04-21 09:47 17.21806 -90.94394 29107 ft 482 kts 115°
2026-04-21 09:47 17.20459 -90.91185 29402 ft 482 kts 115°
2026-04-21 09:48 17.19115 -90.87972 29693 ft 482 kts 115°
2026-04-21 09:48 17.17777 -90.84758 29985 ft 482 kts 115°
2026-04-21 09:48 17.16441 -90.81534 30259 ft 482 kts 115°
2026-04-21 09:48 17.15111 -90.78319 30510 ft 482 kts 115°
2026-04-21 09:49 17.13777 -90.75102 30761 ft 482 kts 115°
2026-04-21 09:49 17.12407 -90.71906 31008 ft 482 kts 116°
2026-04-21 09:49 17.09641 -90.65504 31060 ft 491 kts 116°
2026-04-21 09:50 17.06839 -90.58973 31065 ft 493 kts 115°
2026-04-21 09:50 17.04129 -90.52404 31066 ft 494 kts 115°
2026-04-21 09:51 17.01383 -90.45770 31066 ft 501 kts 116°
2026-04-21 09:51 16.98529 -90.39108 31061 ft 503 kts 116°
2026-04-21 09:52 16.95671 -90.32445 31065 ft 502 kts 116°
2026-04-21 09:52 16.92832 -90.25807 31063 ft 500 kts 116°
2026-04-21 09:53 16.89998 -90.19192 31078 ft 499 kts 116°
2026-04-21 09:53 16.87167 -90.12561 31091 ft 501 kts 116°
2026-04-21 09:54 16.84324 -90.05915 31094 ft 502 kts 116°
2026-04-21 09:54 16.81478 -89.99256 31071 ft 502 kts 115°
2026-04-21 09:55 16.78733 -89.92578 31072 ft 500 kts 115°
2026-04-21 09:55 16.75933 -89.85939 31078 ft 500 kts 115°
2026-04-21 09:56 16.73095 -89.79312 31074 ft 502 kts 115°
2026-04-21 09:56 16.70723 -89.73779 31073 ft 503 kts 115°
2026-04-21 09:57 16.67411 -89.66042 31068 ft 502 kts 115°
2026-04-21 09:57 16.65028 -89.60482 31068 ft 501 kts 115°
2026-04-21 09:58 16.61755 -89.54133 31045 ft 497 kts 131°
2026-04-21 09:58 16.56158 -89.48148 31083 ft 497 kts 137°
2026-04-21 09:59 16.52061 -89.43868 31072 ft 498 kts 136°
2026-04-21 09:59 16.47255 -89.38682 31070 ft 496 kts 135°
2026-04-21 10:00 16.42494 -89.33493 31066 ft 495 kts 134°
2026-04-21 10:00 16.37790 -89.28242 31060 ft 497 kts 134°
2026-04-21 10:01 16.33200 -89.22911 31025 ft 500 kts 123°
2026-04-21 10:01 16.31762 -89.19620 31013 ft 502 kts 106°
2026-04-21 10:01 16.31075 -89.16062 31063 ft 500 kts 99°
2026-04-21 10:02 16.30141 -89.08985 31061 ft 489 kts 99°
2026-04-21 10:02 16.29641 -89.05486 30847 ft 491 kts 99°
2026-04-21 10:02 16.29094 -89.01966 30252 ft 493 kts 100°
2026-04-21 10:03 16.28532 -88.98467 29540 ft 489 kts 101°
2026-04-21 10:03 16.27932 -88.94990 28940 ft 484 kts 101°
2026-04-21 10:03 16.27331 -88.91600 28435 ft 470 kts 101°
2026-04-21 10:03 16.26743 -88.88302 27953 ft 457 kts 101°
2026-04-21 10:04 16.26183 -88.85063 27466 ft 453 kts 100°
2026-04-21 10:04 16.25653 -88.81830 26829 ft 454 kts 100°
2026-04-21 10:04 16.25123 -88.78595 26328 ft 452 kts 100°
2026-04-21 10:04 16.24594 -88.75378 25857 ft 449 kts 100°
2026-04-21 10:05 16.24066 -88.72183 25376 ft 447 kts 100°
2026-04-21 10:05 16.23538 -88.69008 24895 ft 444 kts 100°
2026-04-21 10:05 16.22993 -88.65861 24360 ft 442 kts 101°
2026-04-21 10:05 16.22411 -88.62700 23647 ft 446 kts 101°
2026-04-21 10:06 16.21837 -88.59538 23056 ft 444 kts 100°
2026-04-21 10:06 16.21294 -88.56391 22549 ft 439 kts 100°
2026-04-21 10:06 16.20756 -88.53280 21976 ft 436 kts 100°
2026-04-21 10:06 16.20217 -88.50183 21430 ft 433 kts 100°
2026-04-21 10:07 16.19681 -88.47118 20944 ft 429 kts 100°
2026-04-21 10:07 16.19152 -88.44095 20462 ft 419 kts 100°
2026-04-21 10:07 16.18633 -88.41145 19804 ft 412 kts 100°
2026-04-21 10:07 16.18114 -88.38209 19244 ft 412 kts 100°
2026-04-21 10:08 16.17594 -88.35284 18764 ft 410 kts 100°
2026-04-21 10:08 16.17077 -88.32372 18174 ft 410 kts 99°
2026-04-21 10:08 16.16588 -88.29450 17629 ft 408 kts 99°
2026-04-21 10:08 16.16110 -88.26562 17170 ft 403 kts 99°
2026-04-21 10:09 16.15628 -88.23737 16500 ft 398 kts 100°
2026-04-21 10:09 16.15160 -88.20934 16037 ft 388 kts 99°
2026-04-21 10:09 16.14697 -88.18170 15522 ft 382 kts 100°
2026-04-21 10:09 16.14222 -88.15506 15051 ft 375 kts 101°
2026-04-21 10:10 16.13747 -88.12834 14488 ft 369 kts 101°
2026-04-21 10:10 16.13297 -88.10271 14026 ft 362 kts 101°
2026-04-21 10:10 16.12853 -88.07721 13554 ft 355 kts 101°
2026-04-21 10:10 16.11942 -88.05355 12922 ft 357 kts 126°
2026-04-21 10:11 16.10141 -88.03588 12476 ft 356 kts 145°
2026-04-21 10:11 16.08067 -88.02234 12180 ft 351 kts 148°
2026-04-21 10:11 16.05947 -88.00918 11733 ft 358 kts 148°
2026-04-21 10:11 16.03801 -87.99617 11281 ft 355 kts 149°
2026-04-21 10:12 16.01656 -87.98362 10905 ft 350 kts 149°
2026-04-21 10:12 15.99566 -87.97146 10547 ft 341 kts 149°
2026-04-21 10:12 15.97522 -87.95958 10208 ft 332 kts 149°
2026-04-21 10:12 15.95527 -87.94801 9835 ft 326 kts 149°
2026-04-21 10:13 15.93566 -87.93672 9483 ft 318 kts 149°
2026-04-21 10:13 15.91654 -87.92575 9135 ft 311 kts 149°
2026-04-21 10:13 15.89775 -87.91506 8816 ft 304 kts 149°
2026-04-21 10:13 15.87937 -87.90464 8464 ft 299 kts 149°
2026-04-21 10:14 15.86129 -87.89445 8139 ft 293 kts 149°
2026-04-21 10:14 15.84344 -87.88455 7814 ft 288 kts 150°
2026-04-21 10:14 15.82569 -87.87502 7486 ft 285 kts 150°
2026-04-21 10:14 15.80771 -87.86663 7119 ft 284 kts 163°
2026-04-21 10:15 15.78813 -87.86376 6802 ft 285 kts 173°
2026-04-21 10:15 15.76843 -87.86190 6514 ft 285 kts 173°
2026-04-21 10:15 15.74869 -87.85990 6207 ft 285 kts 173°
2026-04-21 10:15 15.72899 -87.85791 5906 ft 284 kts 172°
2026-04-21 10:16 15.70933 -87.85595 5589 ft 284 kts 172°
2026-04-21 10:16 15.68968 -87.85399 5283 ft 284 kts 172°
2026-04-21 10:16 15.67007 -87.85174 4992 ft 283 kts 171°
2026-04-21 10:16 15.65055 -87.84938 4650 ft 280 kts 172°
2026-04-21 10:17 15.63140 -87.84706 4300 ft 275 kts 172°
2026-04-21 10:17 15.61258 -87.84483 3966 ft 270 kts 173°
2026-04-21 10:17 15.59412 -87.84285 3643 ft 265 kts 173°
2026-04-21 10:17 15.57595 -87.84081 3306 ft 260 kts 173°
2026-04-21 10:18 15.55807 -87.83900 2957 ft 256 kts 178°
2026-04-21 10:18 15.54099 -87.84273 2509 ft 250 kts 211°
2026-04-21 10:18 15.52838 -87.85411 2278 ft 230 kts 225°
2026-04-21 10:18 15.51727 -87.86514 1987 ft 215 kts 223°
2026-04-21 10:19 15.50654 -87.87532 1652 ft 204 kts 223°
2026-04-21 10:19 15.49626 -87.88486 1316 ft 193 kts 221°
2026-04-21 10:19 15.48663 -87.89363 1012 ft 176 kts 220°
2026-04-21 10:19 15.47765 -87.90164 673 ft 165 kts 219°
2026-04-21 10:20 15.46923 -87.90903 406 ft 151 kts 219°
2026-04-21 10:20 15.46156 -87.91576 169 ft 141 kts 219°
2026-04-21 10:20 15.45429 -87.92212 116 ft 130 kts 218°
2026-04-21 10:20 15.44900 -87.92669 108 ft 40 kts 221°
2026-04-21 10:21 15.44675 -87.92867 109 ft 49 kts 220°
2026-04-21 10:21 15.44520 -87.93025 108 ft 13 kts 258°
2026-04-21 10:21 15.44542 -87.93069 108 ft 1 kts 311°
2026-04-21 10:21 15.44546 -87.93074 108 ft 2 kts 311°
2026-04-21 10:22 15.44554 -87.93083 108 ft 1 kts 311°
2026-04-21 10:22 15.44559 -87.93089 107 ft 1 kts 314°
2026-04-21 10:22 15.44566 -87.93093 107 ft 1 kts 333°
2026-04-21 10:22 15.44573 -87.93095 107 ft 1 kts 345°
2026-04-21 10:23 15.44581 -87.93096 107 ft 1 kts 356°
2026-04-21 10:23 15.44588 -87.93095 107 ft 1 kts 10°
2026-04-21 10:23 15.44596 -87.93091 106 ft 2 kts 25°
2026-04-21 10:23 15.44603 -87.93087 106 ft 1 kts 33°
2026-04-21 10:24 15.44610 -87.93082 107 ft 2 kts 34°
2026-04-21 10:24 15.44617 -87.93077 107 ft 1 kts 34°
2026-04-21 10:24 15.44624 -87.93072 107 ft 1 kts 36°
2026-04-21 10:24 15.44631 -87.93066 107 ft 1 kts 39°
2026-04-21 10:25 15.44637 -87.93061 107 ft 1 kts 40°
2026-04-21 10:25 15.44643 -87.93055 107 ft 1 kts 40°
2026-04-21 10:25 15.44649 -87.93050 107 ft 1 kts 40°
2026-04-21 10:25 15.44656 -87.93044 107 ft 2 kts 39°
2026-04-21 10:26 15.44663 -87.93038 107 ft 0 kts 39°
2026-04-21 10:26 15.44667 -87.93035 106 ft 1 kts 38°
2026-04-21 10:26 15.44677 -87.93027 107 ft 1 kts 37°
2026-04-21 10:26 15.44678 -87.93026 107 ft 0 kts 37°
2026-04-21 10:27 15.44683 -87.93022 107 ft 1 kts 37°
2026-04-21 10:27 15.44690 -87.93017 107 ft 1 kts 37°
2026-04-21 10:27 15.44697 -87.93012 107 ft 1 kts 36°
2026-04-21 10:27 15.44704 -87.93006 107 ft 1 kts 35°
2026-04-21 10:28 15.44711 -87.93001 107 ft 1 kts 34°
2026-04-21 10:28 15.44718 -87.92996 106 ft 1 kts 34°
2026-04-21 10:28 15.44725 -87.92992 106 ft 1 kts 33°
2026-04-21 10:28 15.44734 -87.92985 106 ft 3 kts 36°
2026-04-21 10:29 15.44741 -87.92979 106 ft 2 kts 37°
2026-04-21 10:29 15.44854 -87.92879 106 ft 40 kts 50°
2026-04-21 10:29 15.45090 -87.92669 106 ft 53 kts 39°
2026-04-21 10:29 15.45272 -87.92535 106 ft 14 kts 358°
2026-04-21 10:30 15.45368 -87.92629 105 ft 26 kts 310°
2026-04-21 10:30 15.45482 -87.92589 105 ft 20 kts 41°
2026-04-21 10:30 15.45551 -87.92597 104 ft 10 kts 309°
2026-04-21 10:30 15.45574 -87.92627 105 ft 0 kts 310°
2026-04-21 10:31 15.45576 -87.92629 105 ft 0 kts 310°